Overview Statistics Trail Chart Weather Telemetry Raw packets
 

This is the latest recevied weather packets stored in our database for station/object IW1RCO-13. If no packets are shown the sender has not sent any weather packets the latest 10 day(s).

<< 71 72 73 74 75 76 77 >>
Time Temp. Humidity Pressure Rain* Wind** Luminosity Snow
1788048567 17.78° C 70% 1016.7 hPa - - - -
1788048270 17.78° C 67% 1016.7 hPa - - - -
1788047966 17.78° C 68% 1016.6 hPa - - - -
1788047670 17.78° C 68% 1016.9 hPa - - - -
1788047366 17.78° C 69% 1017 hPa - - - -
1788047069 17.78° C 68% 1017 hPa - - - -
1788046772 17.78° C 67% 1017.2 hPa - - - -
1788046469 17.78° C 67% 1016.6 hPa - - - -
1788046166 17.78° C 67% 1016.5 hPa - - - -
1788045869 17.78° C 65% 1015.8 hPa - - - -
1788045565 18.33° C 68% 1015.9 hPa - - - -
1788043171 18.33° C 69% 1016.1 hPa - - - -
1788042571 18.89° C 67% 1015.8 hPa - - - -
1788042267 18.89° C 67% 1016.1 hPa - - - -
1788041971 18.89° C 67% 1016.6 hPa - - - -
1788041667 18.89° C 68% 1016.1 hPa - - - -
1788041370 18.89° C 67% 1015.9 hPa - - - -
1788041066 18.89° C 67% 1016.9 hPa - - - -
1788040769 18.89° C 67% 1016.3 hPa - - - -
1788040466 18.89° C 71% 1015.9 hPa - - - -
1788040169 18.89° C 70% 1016.5 hPa - - - -
1788039866 18.89° C 69% 1016.7 hPa - - - -
1788039569 18.89° C 69% 1016.7 hPa - - - -
1788039265 18.89° C 70% 1016.4 hPa - - - -
1788038969 18.89° C 72% 1016.2 hPa - - - -

* Rain since midnight (hover to see other rain measurements)
** Current wind speed in m/s (hover to see current wind gust speed)